Regional Weather Roundup
Issued by NWS

Home | Current Version | Previous Version | Graphics & Text | Print | Product List | Glossary Off
Versions: 1 2 3 4 5 6 7 8 9 10 11 12 13 14 15 16 17 18 19 20 21 22 23 24 25 26 27 28 29 30 31 32 33 34 35 36 37 38 39 40 41 42 43 44 45 46 47 48 49 50

000
ASUS43 KDTX 040301
RWRMI
MICHIGAN HOURLY REGIONAL WEATHER ROUNDUP
NATIONAL WEATHER SERVICE DETROIT/PONTIAC MI
1100 PM EDT FRI JUL 03 2015

NOTE: "FAIR" INDICATES FEW OR NO CLOUDS BELOW 12,000 FEET WITH NO
SIGNIFICANT WEATHER AND/OR OBSTRUCTION TO VISIBILITY.

MIZ047>049-052>055-059>063-066>070-074>076-081>083-040400-
SOUTHEAST LOWER MICHIGAN

CITY           SKY/WX    TMP DP  RH WIND       PRES   REMARKS
ADRIAN         CLEAR     61  56  83 CALM      29.95R
ALMA           CLEAR     56  53  90 CALM      29.93F
ANN ARBOR      CLEAR     55  53  93 CALM      29.94R
BAD AXE        CLEAR     55  51  89 CALM      29.95S
CARO           CLEAR     53  51  94 CALM      29.93F
DETROIT CITY   CLEAR     66  52  60 CALM      29.94R
DETROIT        MOCLDY    64  56  75 S3        29.95R
FLINT          CLEAR     59  49  69 CALM      29.94R
GROSSE ILE     CLEAR     63  57  82 CALM      29.93R
HILLSDALE      CLEAR     60  58  94 CALM      29.95R
HOWELL         CLEAR     60  52  75 CALM      29.95R

CITY           SKY/WX    TMP DP  RH WIND       PRES   REMARKS
JACKSON        CLEAR     59  55  87 CALM      29.94R
LAMBERTVILLE   CLEAR     60  55  85 CALM      29.94R
LANSING        CLEAR     61  51  70 CALM      29.94S
LAPEER         FAIR      56  51  82 CALM      29.95R
MASON          CLEAR     57  53  86 CALM      29.94S
MONROE         CLEAR     58  55  90 CALM      29.93R
MT. CLEMENS    CLEAR     61  55  82 CALM      29.91S
PONTIAC        PTCLDY    64  53  67 SE3       29.93R
PORT HOPE        N/A     57  54  89 S3        29.93S
PORT HURON     CLEAR     57  55  94 CALM      29.94S
TRI CITIES     PTCLDY    64  46  52 SE6       29.94S
MIDLAND        FAIR      56  50  79 CALM      29.92S
TROY           FAIR      66  50  55 CALM      29.96R
SAGINAW HB     CLEAR     59  46  63 CALM      29.93S
$$
MIZ043>046-050>051-056>058-064>065-071>073-077>080-040400-
SOUTHWEST LOWER MICHIGAN

CITY           SKY/WX    TMP DP  RH WIND       PRES   REMARKS
BATTLE CREEK   CLEAR     63  56  78 W3        29.94R HAZE
BENTON HARBOR  CLEAR     58  55  90 CALM      29.93S FOG
BIG RAPIDS     CLEAR     60  51  74 W3        29.94S
COLDWATER      CLEAR     59  55  87 CALM      29.94R
FREMONT        FAIR      58  51  78 CALM      29.94R
HOLLAND        CLEAR     59  54  83 CALM      29.94R
GRAND RAPIDS   PTCLDY    65  52  62 NW3       29.94R
IONIA          FAIR      60  53  78 CALM      29.92S
KALAMAZOO      CLEAR     63  54  72 N5        29.95R
LUDINGTON      CLEAR     56  52  87 CALM      29.93S
MARSHALL       CLEAR     59  55  87 CALM      29.94R
MOUNT PLEASANT CLEAR     58  54  85 CALM      29.93S
MUSKEGON       MOCLDY    60  52  74 CALM      29.94R
SOUTH HAVEN    CLEAR     57  54  90 CALM      29.94R
$$
MIZ016>042-040400-
NORTHERN LOWER MICHIGAN

CITY           SKY/WX    TMP DP  RH WIND       PRES   REMARKS
ALPENA         CLOUDY    64  52  64 CALM      29.92R
BEAVER ISLAND  MOCLDY    60  49  65 SW9       29.89F
BELLAIRE       MOCLDY    57  54  89 CALM      29.92S
CADILLAC       CLEAR     59  52  79 CALM      29.94S
CHARLEVOIX     CLOUDY    66  48  53 SW5       29.93S
FRANKFORT      MOCLDY    65  40  39 CALM      29.91S
GAYLORD        MOCLDY    62  55  77 CALM      29.93S
GRAYLING       PTCLDY    62  55  79 CALM      29.94S
HARBOR SPRINGS MOCLDY    62  54  74 CALM      29.91R
HOUGHTON LAKE  PTCLDY    59  54  83 CALM      29.94R
MANISTEE       CLEAR    N/A N/A N/A CALM      29.93R
OSCODA         PTCLDY    59  53  81 CALM      29.92S
PELLSTON       CLOUDY    63  53  70 S5        29.90S
ROGERS CITY    MOCLDY    58  56  91 CALM      29.92F
TRAVERSE CITY  PTCLDY    63  52  67 CALM      29.90S
$$
MIZ007>008-015-040400-
EASTERN UPPER MICHIGAN

CITY           SKY/WX    TMP DP  RH WIND       PRES   REMARKS
KINROSS        CLOUDY    61  55  82 CALM      29.89S
MACKINAC ISLAN CLOUDY    62  54  75 SW6       29.89S
NEWBERRY       PTCLDY    55  52  90 SW8       29.88S
S. S. MARIE    MOCLDY    62  54  74 CALM      29.89R
MUNISING         N/A     62  58  86 SW3       29.87R
$$
MIZ004>006-011>014-085-040400-
CENTRAL UPPER MICHIGAN

CITY           SKY/WX    TMP DP  RH WIND       PRES   REMARKS
MANISTIQUE     MOCLDY    57  51  80 CALM      29.88R
ESCANABA       CLEAR     63  57  82 CALM      29.86R
MENOMINEE      CLEAR     66  55  68 W5        29.87R
SAWYER-GWINN   CLEAR     62  56  80 NE6       29.90R
$$
MIZ001>003-009>011-084-040400-
WESTERN UPPER MICHIGAN

CITY           SKY/WX    TMP DP  RH WIND       PRES   REMARKS
IRON MOUNTAIN  PTCLDY    63  57  81 CALM      29.87R
HOUGHTON       CLEAR     60  58  92 NE6       29.87R
COPPER HARBOR    N/A     62  57  83 CALM      29.87R
IRONWOOD       PTCLDY    61  61 100 CALM      29.87R
$$

ABBREVIATIONS USED IN REMARKS
   TC - TEMPERATURE IN CELSIUS
  WCI - WIND CHILL INDEX
   HX - HEAT INDEX
  VSB - VISIBILITY



USA.gov is the U.S. government's official web portal to all federal, state and local government web resources and services.